Content
SEND FEEDBACK

Daily
Averages
Monthly
Summary
United States of America

BOSTON, MASSACHUSETTS


Home > North America > United States > Massachusetts
Elevation: 1 meter     Latitude: 42 22N     Longitude: 071 02W

WEATHER
 
SELECT A DAY
Number of Records: 202,348;   Date Range: 1/1/95 - 7/7/14
 
SHARE

PRINT THIS DATA

[ ← Previous Day ]
WEATHER ALMANAC - 15 SEPTEMBER, 2013
[ Next Day → ]
[ °F ]   °C
Weather ElementAverageHighLow
Temperature17.5 °C22.8 °C (3:54 pm)12.2 °C (5:54 am)
Dewpoint8.5 °C10 °C (9:54 am)5 °C (6:54 pm)
Humidity57.5 %80 % (3:54 am)37 % (6:54 pm)
Barometer1019.3 hPa1021.3 hPa (9:54 am)1017.9 hPa (4:54 pm)
Wind Speed13.5 km/h22.2 km/h (9:54 pm)
Wind Gust29.6 km/h (5:54 pm)
Weather ElementAverage
Visibility16.1 km
Wind DirectionSSW (218.7 °)

Weather ElementTotal
Precipitation---
Heating Degree Days0.8 (Base 18.3)
Growing Degree Days7.5 (Base 10)
Averaged from 23 records on 15 September, 2013
WEATHER CONDITIONS BREAKOUT
WIND DIRECTION BREAKOUT
WEATHER BY HOUR - 15 SEPTEMBER, 2013
[ °F ]   °C
Local TimeTemperatureDewpointHumidityBarometerVisibilityWind DirectionWind SpeedGust SpeedPrecipitationEventsConditions
1:54 AM13.9 °C9.4 °C74 %1018.6 hPa16.1 kmWest (280°)11.1 km/hClear
2:54 AM13.3 °C9.4 °C77 %1018.6 hPa16.1 kmWNW (290°)13 km/hClear
3:54 AM12.8 °C9.4 °C80 %1019 hPa16.1 kmWNW (300°)11.1 km/hClear
4:54 AM12.8 °C8.9 °C77 %1019.6 hPa16.1 kmWNW (300°)13 km/hClear
5:54 AM12.2 °C8.9 °C80 %1020 hPa16.1 kmWNW (300°)11.1 km/hClear
6:54 AM12.8 °C8.9 °C77 %1020.7 hPa16.1 kmWNW (290°)13 km/hClear
7:54 AM13.9 °C8.9 °C72 %1021 hPa16.1 kmWNW (300°)11.1 km/hClear
8:54 AM16.1 °C9.4 °C64 %1021 hPa16.1 kmVariable5.6 km/hPartly Cloudy
9:54 AM17.2 °C10 °C63 %1021.3 hPa16.1 kmVariable5.6 km/hClear
10:54 AM19.4 °C7.2 °C45 %1021.3 hPa16.1 kmVariable5.6 km/hClear
11:54 AM20 °C8.3 °C47 %1020.7 hPa16.1 kmVariable9.3 km/hClear
12:54 PM20.6 °C8.3 °C45 %1020.3 hPa16.1 kmWSW (250°)14.8 km/hScattered Clouds
1:54 PM21.7 °C9.4 °C45 %1019.3 hPa16.1 kmWSW (250°)14.8 km/h25.9 km/hMostly Cloudy
2:54 PM22.2 °C8.9 °C43 %1018.6 hPa16.1 kmWSW (250°)11.1 km/hMostly Cloudy
3:54 PM22.8 °C8.3 °C39 %1018.3 hPa16.1 kmWSW (250°)18.5 km/hOvercast
4:54 PM21.7 °C7.2 °C39 %1017.9 hPa16.1 kmSW (230°)14.8 km/hOvercast
5:54 PM20.6 °C7.8 °C44 %1017.9 hPa16.1 kmWest (270°)18.5 km/h29.6 km/hMostly Cloudy
6:54 PM20 °C5 °C37 %1017.9 hPa16.1 kmWSW (240°)18.5 km/h29.6 km/hOvercast
7:54 PM19.4 °C7.2 °C45 %1017.9 hPa16.1 kmWSW (240°)14.8 km/hOvercast
8:54 PM18.3 °C8.3 °C52 %1017.9 hPa16.1 kmWSW (240°)16.7 km/hOvercast
9:54 PM17.8 °C8.3 °C54 %1017.9 hPa16.1 kmWSW (250°)22.2 km/hScattered Clouds
10:54 PM16.1 °C8.9 °C62 %1017.9 hPa16.1 kmWSW (250°)18.5 km/hScattered Clouds
11:54 PM16.7 °C9.4 °C62 %1017.9 hPa16.1 kmWSW (250°)18.5 km/hOvercast
Hourly data recorded from KBOS, located 0 kilometers away from Boston, Massachusetts







STORIES FROM OUR PARTNERS